Change the Weather History Date:

Friday, November 1, 2013

  Actual Average Record
Temperature  
Mean Temperature 44 °F -  
Max Temperature 52 °F - - ()
Min Temperature 35 °F - - ()
Degree Days  
Heating Degree Days 22    
Moisture  
Dew Point 39 °F    
Average Humidity 76    
Maximum Humidity 93    
Minimum Humidity 60    
Precipitation  
Precipitation 0.00 in - - ()
Sea Level Pressure  
Sea Level Pressure 30.06 in    
Wind  
Wind Speed 7 mph ()    
Max Wind Speed 12 mph    
Max Gust Speed -    
Visibility 9.1 miles    
Events      
T = Trace of Precipitation, MM = Missing Value Source: Averaged Metar Reports

Daily Weather History Graph

Daily Weather History Graph

Search for Another Location

Airport or City:

Trip Planner

Search our weather history database for the weather conditions in past years. The results will help you decide how hot, cold, wet, or windy it might be!

Date:

Astronomy

Nov. 01, 2013 Rise Set
Actual Time 6:57 AM CET 4:38 PM CET
Civil Twilight 6:22 AM CET 5:13 PM CET
Nautical Twilight 5:43 AM CET 5:52 PM CET
Astronomical Twilight 5:05 AM CET 6:31 PM CET
Moon 4:17 AM CET (11/1) 3:32 PM CET (11/1)
Length of Visible Light 10h 50m
Length of Day
9h 41m
Waning Crescent, 5% of the Moon is Illuminated
Nov 1
Waning Crescent
Nov 3
New
Nov 10
First Quarter
Nov 17
Full
Nov 25
Last Quarter

Hourly Weather History & Observations

Time (CET) Temp. Windchill Dew Point Humidity Pressure Visibility Wind Dir Wind Speed Gust Speed Precip Events Conditions
12:20 AM 37.4 °F - 33.8 °F 87% 30.15 in - South 2.3 mph - N/A   Clear
12:50 AM 35.6 °F 32.8 °F 33.8 °F 93% 30.12 in - South 3.5 mph - N/A   Clear
1:00 AM 36 °F - 34 °F 88% 30.18 in 12 mi SSE 8.9 mph - -   Clear
1:20 AM 35.6 °F 29.9 °F 33.8 °F 93% 30.12 in - SSW 6.9 mph - N/A   Clear
1:50 AM 37.4 °F 29.8 °F 33.8 °F 87% 30.12 in - South 11.5 mph - N/A   Clear
2:00 AM 37 °F - 34 °F 85% 30.17 in 12 mi SSE 8.9 mph - -   Clear
2:20 AM 41.0 °F 34.3 °F 35.6 °F 81% 30.12 in - South 11.5 mph - N/A   Clear
2:50 AM 41.0 °F 35.2 °F 35.6 °F 81% 30.12 in - SSW 9.2 mph - N/A   Clear
3:00 AM 41 °F - 35 °F 73% 30.16 in 12 mi South 11.2 mph - -   Clear
3:20 AM 42.8 °F 38.0 °F 35.6 °F 76% 30.09 in - SSW 8.1 mph - N/A   Clear
3:50 AM 42.8 °F 38.0 °F 35.6 °F 76% 30.09 in - SSW 8.1 mph - N/A   Clear
4:20 AM 41.0 °F 35.8 °F 35.6 °F 81% 30.09 in - South 8.1 mph - N/A   Clear
4:50 AM 41.0 °F 34.3 °F 35.6 °F 81% 30.09 in - South 11.5 mph - N/A   Clear
5:00 AM 41 °F - 35 °F 72% 30.14 in 14 mi South 11.2 mph - -   Clear
5:20 AM 41.0 °F 34.7 °F 35.6 °F 81% 30.09 in - South 10.4 mph - N/A   Clear
5:50 AM 41.0 °F 35.2 °F 35.6 °F 81% 30.09 in - South 9.2 mph - N/A   Clear
6:20 AM 41.0 °F 35.2 °F 35.6 °F 81% 30.09 in - South 9.2 mph - N/A   Clear
6:50 AM 42.8 °F 38.0 °F 37.4 °F 81% 30.09 in - SSW 8.1 mph - N/A   Clear
7:20 AM 42.8 °F 36.6 °F 37.4 °F 81% 30.09 in - South 11.5 mph - N/A   Clear
7:50 AM 44.6 °F 38.8 °F 37.4 °F 76% 30.09 in - SSW 11.5 mph - N/A   Clear
8:00 AM 44 °F - 38 °F 71% 30.14 in 22 mi South 8.9 mph - -   Clear
8:20 AM 44.6 °F 39.7 °F 37.4 °F 76% 30.09 in - SSW 9.2 mph - N/A   Clear
8:50 AM 46.4 °F 42.9 °F 37.4 °F 71% 30.09 in - South 6.9 mph - N/A   Clear
9:00 AM 46 °F - 38 °F 67% 30.13 in 22 mi South 6.7 mph - -   Overcast
9:20 AM 44.6 °F 41.4 °F 37.4 °F 76% 30.09 in - South 5.8 mph - N/A   Clear
9:50 AM 46.4 °F 44.3 °F 37.4 °F 71% 30.09 in - SSW 4.6 mph - N/A   Clear
10:20 AM 48.2 °F - 39.2 °F 71% 30.09 in - South 6.9 mph - N/A   Clear
10:50 AM 48.2 °F - 39.2 °F 71% 30.09 in - SSW 5.8 mph - N/A   Clear
11:00 AM 49 °F - 40 °F 61% 30.13 in 22 mi SSW 4.5 mph - -   Overcast
11:20 AM 50.0 °F - 41.0 °F 71% 30.09 in 6.2 mi SSW 5.8 mph - N/A   Mostly Cloudy
11:50 AM 50.0 °F - 39.2 °F 66% 30.09 in 6.2 mi SSW 5.8 mph - N/A   Mostly Cloudy
12:00 PM 50 °F - 40 °F 60% 30.12 in 22 mi SSW 4.5 mph - -   Overcast
12:20 PM 51.8 °F - 41.0 °F 67% 30.09 in - SSW 6.9 mph - N/A   Clear
12:50 PM 51.8 °F - 42.8 °F 71% 30.06 in - SSW 8.1 mph - N/A   Clear
1:00 PM 52 °F - 43 °F 62% 30.10 in 19 mi SSW 6.7 mph - -   Overcast
1:20 PM 51.8 °F - 42.8 °F 71% 30.06 in - SSW 6.9 mph - N/A   Clear
1:50 PM 51.8 °F - 42.8 °F 71% 30.06 in - South 6.9 mph - N/A   Clear
2:00 PM 52 °F - 43 °F 63% 30.08 in 19 mi South 6.7 mph - -   Overcast
2:20 PM 51.8 °F - 42.8 °F 71% 30.04 in - South 6.9 mph - N/A   Clear
2:50 PM 50.0 °F - 42.8 °F 76% 30.04 in - South 6.9 mph - N/A   Clear
3:00 PM 51 °F - 42 °F 64% 30.07 in 19 mi South 6.7 mph - -   Overcast
3:20 PM 50.0 °F - 42.8 °F 76% 30.04 in - East 3.5 mph - N/A   Clear
3:50 PM 50.0 °F - 41.0 °F 71% 30.04 in 6.2 mi South 6.9 mph - N/A   Mostly Cloudy
4:20 PM 50.0 °F - 41.0 °F 71% 30.01 in - SSE 5.8 mph - N/A   Clear
4:50 PM 48.2 °F - 41.0 °F 76% 30.01 in 6.2 mi SSE 8.1 mph - N/A   Mostly Cloudy
5:00 PM 48 °F - 41 °F 70% 30.05 in 12 mi SSE 2.2 mph - -   Partly Cloudy
5:20 PM 48.2 °F - 41.0 °F 76% 30.01 in 6.2 mi SSE 6.9 mph - N/A   Mostly Cloudy
5:50 PM 48.2 °F - 41.0 °F 76% 30.01 in 6.2 mi SSE 6.9 mph - N/A   Mostly Cloudy
6:00 PM 47 °F - 40 °F 71% 30.04 in 16 mi SE 6.7 mph - -   Scattered Clouds
6:20 PM 46.4 °F 43.5 °F 39.2 °F 76% 30.01 in 6.2 mi SSE 5.8 mph - N/A   Mostly Cloudy
6:50 PM 46.4 °F 42.9 °F 39.2 °F 76% 30.01 in 6.2 mi SSE 6.9 mph - N/A   Mostly Cloudy
7:00 PM 46 °F - 40 °F 72% 30.04 in 11 mi SSE 6.7 mph - -   Partly Cloudy
7:20 PM 44.6 °F 40.7 °F 39.2 °F 81% 30.01 in 6.2 mi SSE 6.9 mph - N/A   Mostly Cloudy
7:50 PM 46.4 °F 42.9 °F 41.0 °F 81% 29.98 in - SE 6.9 mph - N/A   Clear
8:00 PM 46 °F - 40 °F 74% 30.02 in 8 mi SE 8.9 mph - -   Mostly Cloudy
8:20 PM 46.4 °F 41.9 °F 39.2 °F 76% 29.98 in - SE 9.2 mph - N/A   Clear
8:50 PM 46.4 °F 41.9 °F 41.0 °F 81% 29.95 in - SSE 9.2 mph - N/A   Clear
9:00 PM 46 °F - 41 °F 75% 29.99 in 6 mi SE 8.9 mph - -   Overcast
9:20 PM 46.4 °F 42.4 °F 41.0 °F 81% 29.95 in 5.6 mi SE 8.1 mph - N/A   Unknown
9:50 PM 46.4 °F 41.5 °F 39.2 °F 76% 29.95 in - SSE 10.4 mph - N/A   Clear
10:20 PM 44.6 °F 39.7 °F 41.0 °F 87% 29.95 in 5.6 mi SSE 9.2 mph - N/A   Unknown
10:50 PM 44.6 °F 40.7 °F 39.2 °F 81% 29.92 in 5.0 mi SE 6.9 mph - N/A   Unknown
11:00 PM 44 °F - 40 °F 80% 29.96 in 5 mi SE 11.2 mph - -   Overcast
11:20 PM 44.6 °F 40.2 °F 39.2 °F 81% 29.92 in 5.6 mi SSE 8.1 mph - N/A   Unknown
11:50 PM 42.8 °F 37.5 °F 39.2 °F 87% 29.92 in 4.3 mi SSE 9.2 mph - N/A   Unknown